Location: Cluj-Napoca
(46.7712°N, 23.6236°E)
Time: 06:32:54
(UTC+02:00)

ISS - Pass Details

Date: 02 February 2021
Orbit: 417 x 422 km, 51.6° (Epoch: 08 March)

Event Time Altitude Azimuth Distance (km) Brightness Sun altitude
Rises 19:07:40 0° 295° (WNW) 2,376 1.1 -16.8°
Reaches altitude 10° 19:09:47 10° 293° (WNW) 1,510 0.0 -17.2°
Maximum altitude 19:13:09 71° 209° (SSW) 450 -3.6 -17.7°
Enters shadow 19:14:08 42° 138° (SE) 615 -3.2 -17.9°
